Location: Kawakawa
(35.3830°S, 174.0670°E)
Time: 04:07:38
(UTC+13:00)

Explorer 7 - Pass Details

Date: 14 December 2019
Orbit: 485 x 679 km, 50.3° (Epoch: 28 January)

Event Time Altitude Azimuth Distance (km) Brightness Sun altitude
Rises 04:51:27 0° 275° (W) 2,631 - -12.7°
Exits shadow 04:53:43 - 261° (W) 1,837 9.1 -12.3°
Reaches altitude 10° 04:54:05 10° 258° (WSW) 1,724 9.0 -12.3°
Maximum altitude 04:57:06 21° 207° (SSW) 1,164 8.6 -11.8°
Drops below altitude 10° 05:00:05 10° 156° (SSE) 1,698 10.4 -11.3°
Sets 05:02:39 0° 139° (SE) 2,579 12.2 -10.9°
